Location: Unspecified
(0.0000°N, 0.0000°E)
Time: 02:23:42
(UTC+00:00)

Explorer 11/Cluster Stage 4 - Pass Details

Date: 14 December 2018
Orbit: 467 x 1260 km, 28.8° (Epoch: 15 January)

Event Time Altitude Azimuth Distance (km) Brightness Sun altitude
Rises 18:23:59 0° 213° (SSW) 4,204 11.4 -6.7°
Reaches altitude 10° 18:28:54 10° 189° (S) 3,192 10.2 -7.8°
Maximum altitude 18:32:37 14° 161° (SSE) 2,846 9.5 -8.7°
Drops below altitude 10° 18:36:11 10° 133° (SE) 3,027 9.3 -9.5°
Enters shadow 18:40:16 - 110° (ESE) 3,759 9.6 -10.4°
